Regional Weather Roundup
Issued by NWS

Home | Current Version | Previous Version | Graphics & Text | Print | Product List | Glossary On
Versions: 1 2 3 4 5 6 7 8 9 10 11 12 13 14 15 16 17 18 19 20 21 22 23 24 25 26 27 28 29 30 31 32 33 34 35 36 37 38 39 40 41 42 43 44 45 46 47 48 49 50
997
ASUS45 KCYS 271010
RWRWY

WYOMING REGIONAL WEATHER ROUNDUP
NATIONAL WEATHER SERVICE CHEYENNE WY
400 AM MDT THU APR 27 2017

NOTE:  "FAIR" INDICATES FEW OR NO CLOUDS BELOW 12,000 FEET
WITH NO SIGNIFICANT WEATHER AND/OR OBSTRUCTIONS TO VISIBILITY.

WYZ001-271100-
YELLOWSTONE NATIONAL PARK

CITY           SKY/WX    TMP DP  RH WIND       PRES   REMARKS
LK YELLOWSTONE   N/A     27  27 100 CALM      29.59F
W YELLOWSTONE  NOT AVBL

$$
WYZ002>013-054>058-071-098>099-271100-
NORTHERN WYOMING

CITY           SKY/WX    TMP DP  RH WIND       PRES   REMARKS
JACKSON        CLOUDY    34  32  93 N5        29.58S WCI  30
CODY           LGT SNOW  33  32  96 NW7       29.58S FOG     WCI  27
GREYBULL       CLOUDY    43  37  79 NW9       29.53F
WORLAND        CLOUDY    41  40  96 N8        29.52F
SHERIDAN       FOG       32  31  96 NW6       29.57S VSB 1/2 WCI  26
BUFFALO        CLOUDY    34  28  79 NW8       29.54F WCI  27
GILLETTE       CLOUDY    34  33  96 SE7       29.56F WCI  28
HULETT         FAIR      32  28  86 MISG      29.61S
NEWCASTLE      PTSUNNY   32  32 100 N6        29.60F WCI  26

$$
WYZ014>020-022>026-101>103-271100-
CENTRAL WYOMING

CITY           SKY/WX    TMP DP  RH WIND       PRES   REMARKS
BIG PINEY      FOG       29  29 100 E3        29.60F VSB 1/2
PINEDALE       FOG       32  32 100 W3        29.61S VSB 1
DUBOIS         PTSUNNY   32  28  86 W9        29.53F WCI  24
LANDER         FAIR      38  32  79 SW7       29.52S WCI  33
RIVERTON       MOCLDY    39  35  86 W8        29.53S WCI  33
CASPER         LGT RAIN  38  35  89 SW7       29.55S WCI  33
DOUGLAS        MOCLDY    36  34  92 SE7       29.56F WCI  30

$$
WYZ021-027>030-104>119-271100-
SOUTHERN WYOMING

CITY           SKY/WX    TMP DP  RH WIND       PRES   REMARKS
EVANSTON       CLOUDY    32  32 100 W6        29.70R WCI  26
KEMMERER         N/A     32  30  93 W23       29.64F WCI  19
FORT BRIDGER   HVY SNOW  33  33 100 W12       29.69R VSB 1/4 WCI  25
ROCK SPRINGS   CLOUDY    36  31  82 W20       29.62F WCI  25
DIXON          LGT RAIN  38  36  92 SW14      29.65F WCI  29
RAWLINS        MIX PCPN  34  32  92 SW5       29.59F WCI  30
SARATOGA       CLOUDY    34  34 100 CALM      29.60F
LARAMIE        FLURRIES  34  32  92 SW8       29.60S WCI  27
CHEYENNE       CLOUDY    38  34  85 SW13      29.60F WCI  30
TORRINGTON     FAIR      36  35  96 E9        29.56F WCI  29
PINE BLUFFS    PTSUNNY   41  36  81 SW13      29.59S

$$




USA.gov is the U.S. government's official web portal to all federal, state and local government web resources and services.